Wind_Speed
20 21 22 23 23 24 25 25 26 24 23 22 24 27 28 28 28 29 29 31 32 33 33 34 36 37 38 39 40 41 42 42 43 44 44 44 44 44 43 43 42 42 42 41
20 21 23 23 24 24 25 25 25 25 24 25 26 28 28 28 28 28 29 30 31 32 32 33 34 35 36 37 38 39 40 40 41 41 41 41 41 41 41 41 40 40 39 39
20 21 23 23 23 24 25 25 26 26 25 26 26 27 28 29 28 28 28 30 31 32 32 33 33 34 35 36 37 37 38 38 38 39 39 39 38 37 37 37 37 37 36 36
20 21 23 23 23 24 25 26 27 26 25 26 26 27 28 29 28 28 29 30 30 31 32 33 33 34 35 35 36 36 36 36 37 37 37 36 36 35 35 35 34 35 34 34
20 21 22 23 23 24 26 27 27 26 25 25 25 25 27 28 28 28 29 30 30 31 31 32 32 33 33 34 34 35 35 34 34 34 34 34 34 33 33 32 32 32 32 32
19 20 21 22 22 24 25 26 26 25 25 24 24 24 25 27 27 27 27 28 28 29 29 30 31 31 32 32 32 32 32 32 32 32 32 31 31 31 31 30 30 30 30 29
20 21 22 21 21 22 23 24 24 24 24 24 24 24 24 25 25 25 25 26 26 27 28 28 28 28 29 29 30 29 28 28 29 29 29 29 29 29 29 28 28 28 28 28
20 21 22 21 21 22 22 22 22 22 22 22 23 23 23 23 23 23 24 24 24 25 25 26 27 27 27 27 27 27 27 27 27 27 28 28 28 27 27 27 27 27 26 27
21 21 22 21 21 22 22 23 23 23 23 23 23 23 23 22 22 22 23 23 23 24 24 24 25 26 26 25 25 25 26 26 26 26 26 26 26 26 26 26 26 26 26 27
22 22 22 22 22 22 22 22 23 23 23 23 23 23 23 23 22 22 22 23 23 23 23 23 24 24 24 24 24 24 24 25 25 25 25 25 25 25 25 25 25 26 26 27
23 23 24 24 24 24 24 24 24 24 24 24 24 23 23 23 23 23 23 22 23 23 23 23 23 24 23 23 23 23 23 23 24 24 25 25 25 26 26 26 26 26 27 28
24 25 25 25 26 26 26 26 27 26 26 26 25 25 25 24 24 24 24 23 23 23 23 22 22 23 23 23 23 23 23 23 24 24 24 25 25 25 26 27 27 28 29 30
24 25 26 26 27 27 28 28 28 28 28 27 27 27 26 26 26 26 26 25 24 24 24 23 24 23 23 24 24 25 25 25 25 25 25 26 26 26 27 28 29 30 31 32
23 25 25 26 27 29 29 30 30 30 30 29 29 29 28 28 28 28 27 27 26 26 26 25 25 25 25 25 25 26 26 27 27 28 28 28 29 29 30 30 31 32 32 33
21 23 24 25 27 28 29 30 30 31 31 31 30 30 30 29 29 28 28 28 28 28 28 27 27 27 26 26 27 27 27 28 28 29 29 30 30 31 31 32 33 33 34 35
20 22 24 26 27 27 28 29 30 31 31 31 31 31 31 31 30 30 29 29 29 29 29 29 29 29 28 28 28 28 28 29 29 30 30 31 31 32 32 33 33 34 34 35
22 24 25 26 27 27 27 27 27 28 29 30 31 31 31 31 31 31 31 31 31 30 30 30 30 30 30 29 29 29 29 30 30 30 30 31 32 32 33 33 34 34 35 36
24 25 25 25 25 26 26 27 27 28 28 29 29 30 30 30 30 31 32 33 33 32 32 31 31 30 30 30 30 30 30 30 30 30 30 31 31 32 32 33 34 34 35 36
26 26 27 27 26 26 25 25 25 26 27 28 28 29 29 28 29 29 30 32 32 32 32 32 31 31 31 30 30 30 30 29 29 29 29 30 30 31 32 32 33 34 35 36
30 30 29 29 28 28 26 25 24 23 24 24 24 26 27 28 27 28 29 29 31 31 31 31 31 31 30 29 29 29 28 28 28 29 29 29 30 30 31 32 33 34 34 35
33 32 31 30 29 28 27 26 25 23 23 23 23 24 26 26 27 27 27 27 28 29 29 29 29 29 29 28 28 28 28 28 28 28 28 28 29 29 30 31 31 32 33 34
35 34 33 31 30 29 28 27 26 25 24 24 24 24 24 25 26 26 27 27 27 27 28 27 27 28 28 28 28 28 28 28 27 28 28 28 28 29 30 30 30 31 31 32
36 34 32 31 30 29 28 28 27 27 26 26 26 25 24 25 25 26 26 26 27 27 27 28 28 29 29 29 28 28 27 27 27 27 27 28 28 28 29 29 30 30 31 31
36 34 32 31 30 29 29 28 28 27 27 26 26 26 26 25 25 25 25 25 26 27 27 28 28 28 29 29 28 28 27 27 27 27 27 27 27 28 28 29 29 30 30 31
36 34 32 31 30 29 29 28 27 27 27 26 27 27 26 26 26 25 25 25 26 26 26 26 27 27 27 28 28 28 27 27 27 26 26 27 27 27 28 28 29 29 29 29
35 32 30 29 28 28 28 28 27 27 26 26 26 27 27 27 27 27 26 26 26 26 26 26 26 26 26 27 27 27 27 27 26 26 26 26 26 27 27 28 28 28 28 28
33 31 30 29 28 27 27 27 28 28 27 27 27 27 27 27 27 27 27 26 26 26 26 26 26 26 26 27 27 27 27 27 27 27 27 27 27 27 27 27 27 28 28 29
Wind_Direction
228 229 228 230 232 236 239 241 243 242 244 245 247 248 250 253 255 256 257 256 255 254 255 255 255 255 255 255 255 256 257 257 259 260 261 261 262 263 265 266 266 267 269 270
234 234 234 235 238 240 242 244 245 246 247 248 250 252 253 255 257 259 259 258 257 256 256 256 257 257 257 257 257 258 258 258 259 260 260 261 262 262 263 264 265 266 267 268
238 239 239 240 242 244 245 246 248 250 251 252 252 253 255 257 259 260 259 257 257 256 256 256 257 258 257 257 258 258 259 259 259 259 260 260 261 262 263 264 265 265 265 267
242 242 243 243 243 244 245 247 250 252 253 255 255 255 256 257 258 259 259 259 259 258 257 257 258 258 258 258 258 259 260 260 260 260 260 261 261 262 263 263 264 264 264 265
245 246 247 246 245 245 247 250 253 254 255 256 257 256 257 257 258 260 260 260 259 259 259 258 258 258 259 259 260 260 261 261 261 261 261 261 261 261 261 262 263 263 263 263
247 247 247 247 247 248 250 253 254 256 257 258 257 256 256 258 259 261 261 259 259 258 258 257 257 258 259 259 260 260 261 261 260 260 260 260 260 260 260 261 261 261 261 262
249 249 250 249 249 249 251 254 255 255 256 257 256 256 256 258 259 259 259 258 257 257 256 256 257 258 258 259 259 259 260 260 259 260 260 259 259 259 259 259 259 259 260 260
250 251 253 252 252 251 253 254 255 255 256 256 256 257 257 257 258 258 258 258 258 257 256 255 256 257 258 257 257 257 258 259 259 259 259 258 258 258 258 258 259 259 259 260
253 254 255 254 253 253 253 254 254 255 256 256 257 257 257 257 257 257 257 257 258 258 257 256 256 256 256 255 256 256 256 257 257 258 258 257 257 257 257 259 259 260 261 262
256 257 258 258 258 257 256 255 256 256 256 256 258 258 257 256 257 257 256 256 257 257 257 257 256 256 254 254 254 255 257 257 256 258 258 258 257 258 259 261 261 262 263 265
259 260 261 261 260 259 259 259 258 257 257 256 257 258 258 257 256 257 257 256 256 257 257 257 256 255 252 252 254 255 256 258 258 258 259 259 259 260 261 262 264 265 266 268
261 263 264 263 264 263 262 262 261 260 259 258 258 257 258 258 257 256 257 256 256 256 256 255 255 254 252 252 254 255 257 258 259 259 259 261 263 265 265 265 266 267 269 271
263 263 263 264 265 265 265 264 263 262 261 261 260 259 259 259 257 256 255 256 255 254 254 254 255 255 254 253 254 255 256 258 259 260 261 262 264 266 267 268 269 270 271 273
268 265 265 266 268 267 266 265 264 262 261 261 261 260 260 259 256 254 253 253 253 253 253 254 255 255 255 255 257 257 258 260 260 261 262 264 265 266 268 269 271 272 274 275
278 273 268 267 271 271 267 265 264 261 259 260 261 261 260 259 256 253 253 253 253 253 254 254 255 256 257 258 258 259 259 259 260 262 264 265 266 267 269 270 271 273 274 276
287 282 277 276 275 273 270 269 266 262 259 259 260 260 258 256 254 253 253 253 254 254 253 254 255 256 257 258 259 260 260 261 262 263 265 266 267 269 270 271 272 274 275 276
294 289 285 282 280 278 276 273 269 264 261 259 258 258 257 255 253 252 253 253 254 254 254 254 255 256 257 259 260 261 262 263 264 265 266 267 268 270 271 273 274 275 275 276
300 296 290 286 282 280 278 275 271 267 263 261 259 256 255 255 253 253 253 253 252 253 253 254 254 256 257 259 260 262 263 263 264 266 268 269 271 272 273 274 275 276 277 278
303 300 295 290 286 282 279 277 275 271 266 262 258 255 254 253 253 254 253 252 251 251 252 253 254 255 257 259 261 262 263 263 264 266 269 271 272 274 276 277 277 277 278 279
299 298 296 291 286 282 277 276 275 271 266 261 257 254 252 252 253 254 254 252 249 249 251 252 253 253 255 258 260 261 262 263 265 267 269 271 274 276 278 279 279 279 281 282
298 297 294 290 286 281 276 273 272 270 266 261 257 255 253 252 252 253 252 252 250 249 250 251 251 251 253 257 259 261 263 264 266 268 271 273 275 277 279 281 281 281 282 283
298 295 292 288 284 280 276 271 269 267 264 261 259 257 254 253 252 252 251 251 249 248 248 249 250 251 252 256 259 261 263 266 268 270 272 274 276 278 280 282 283 284 284 284
299 295 291 286 282 278 274 271 268 265 262 259 258 255 253 253 252 251 251 250 249 248 249 250 251 253 254 256 258 260 263 266 269 272 274 275 277 279 281 283 283 284 285 285
299 295 290 286 281 276 273 271 267 263 260 258 256 254 254 253 251 250 250 250 250 250 251 253 254 254 254 254 256 258 261 265 269 272 274 275 278 280 282 283 284 285 286 286
299 295 291 286 280 275 271 269 265 261 258 257 255 253 253 253 252 251 250 249 250 251 253 254 256 255 255 255 255 257 260 264 268 271 273 275 277 280 283 285 286 286 286 286
297 294 291 286 281 276 271 266 262 258 256 255 254 253 252 250 249 249 249 248 248 250 252 253 254 256 256 256 257 258 260 263 266 270 274 276 279 281 284 285 286 286 286 287
295 293 289 285 282 278 272 265 259 255 254 253 252 251 249 249 248 249 249 248 248 249 250 252 253 255 257 259 259 260 261 263 266 270 273 276 278 281 283 285 285 286 287 288
Height
5642 5644 5646 5648 5650 5652 5654 5657 5659 5662 5664 5665 5665 5666 5668 5670 5671 5672 5674 5675 5676 5677 5679 5680 5682 5683 5684 5686 5687 5689 5690 5691 5693 5694 5696 5697 5697 5698 5699 5699 5699 5700 5700 5699
5639 5640 5642 5644 5646 5647 5649 5651 5653 5655 5657 5658 5658 5660 5661 5662 5664 5665 5666 5667 5668 5669 5670 5672 5673 5674 5676 5677 5678 5679 5680 5681 5682 5683 5685 5686 5686 5687 5688 5688 5688 5689 5689 5689
5635 5636 5638 5640 5642 5642 5644 5645 5647 5648 5651 5651 5652 5653 5654 5655 5656 5657 5658 5658 5659 5661 5662 5663 5664 5666 5667 5667 5668 5669 5670 5671 5672 5673 5674 5675 5676 5677 5677 5678 5678 5678 5678 5678
5631 5632 5634 5637 5636 5637 5638 5639 5640 5642 5643 5644 5646 5646 5647 5648 5649 5649 5650 5650 5651 5652 5654 5655 5656 5657 5658 5659 5659 5660 5661 5662 5662 5663 5664 5665 5666 5667 5667 5668 5668 5668 5669 5669
5626 5627 5628 5630 5630 5631 5632 5633 5634 5636 5637 5638 5639 5639 5640 5640 5641 5641 5642 5642 5643 5644 5645 5646 5647 5648 5649 5650 5650 5651 5652 5652 5653 5654 5655 5656 5657 5657 5658 5659 5659 5659 5660 5660
5621 5621 5623 5625 5625 5625 5627 5627 5628 5629 5630 5631 5632 5633 5633 5633 5633 5634 5634 5634 5635 5636 5637 5638 5639 5639 5640 5641 5642 5642 5643 5644 5644 5645 5646 5647 5648 5649 5649 5650 5651 5651 5651 5652
5615 5615 5616 5618 5618 5620 5622 5622 5622 5622 5623 5624 5624 5626 5626 5626 5626 5626 5626 5627 5627 5628 5629 5630 5631 5631 5632 5633 5633 5634 5635 5636 5636 5637 5638 5639 5640 5641 5641 5642 5643 5643 5644 5644
5609 5610 5613 5612 5613 5614 5615 5615 5615 5616 5616 5617 5618 5618 5618 5619 5619 5619 5619 5620 5620 5621 5621 5622 5623 5624 5624 5625 5626 5627 5628 5628 5629 5630 5631 5631 5632 5633 5634 5634 5635 5635 5636 5636
5604 5606 5605 5605 5606 5607 5607 5608 5608 5609 5610 5610 5611 5611 5611 5612 5612 5612 5613 5613 5614 5614 5614 5615 5616 5616 5617 5618 5619 5620 5621 5621 5622 5623 5624 5624 5625 5626 5626 5627 5628 5628 5628 5629
5597 5598 5598 5598 5599 5600 5600 5601 5601 5602 5602 5603 5603 5604 5604 5605 5605 5605 5606 5606 5607 5607 5608 5608 5609 5609 5610 5611 5612 5613 5614 5615 5615 5616 5617 5617 5618 5619 5619 5620 5620 5620 5621 5621
5590 5591 5591 5591 5591 5592 5593 5593 5594 5594 5595 5595 5596 5596 5597 5597 5598 5598 5599 5599 5600 5600 5601 5601 5602 5603 5603 5604 5605 5606 5607 5608 5609 5609 5610 5611 5611 5612 5612 5613 5613 5613 5613 5613
5583 5583 5584 5584 5583 5584 5584 5585 5585 5586 5586 5587 5587 5588 5589 5589 5590 5591 5591 5592 5593 5593 5594 5595 5595 5596 5597 5598 5599 5600 5601 5601 5602 5603 5603 5604 5604 5605 5605 5605 5605 5605 5605 5604
5575 5575 5575 5575 5575 5575 5575 5575 5576 5576 5577 5578 5578 5579 5580 5581 5582 5583 5583 5584 5585 5586 5587 5588 5588 5589 5590 5591 5592 5593 5594 5594 5595 5596 5596 5597 5597 5597 5597 5597 5597 5596 5596 5595
5566 5566 5566 5566 5566 5565 5565 5565 5566 5566 5567 5568 5569 5570 5571 5571 5572 5573 5575 5576 5577 5578 5579 5580 5581 5582 5583 5584 5584 5585 5586 5587 5587 5588 5588 5589 5589 5589 5589 5589 5588 5588 5587 5586
5558 5557 5557 5557 5556 5555 5554 5555 5555 5555 5556 5558 5559 5559 5560 5561 5562 5564 5565 5567 5568 5570 5571 5572 5573 5574 5575 5576 5576 5577 5578 5578 5579 5579 5580 5580 5580 5580 5580 5579 5579 5578 5577 5576
5553 5551 5550 5549 5547 5546 5544 5543 5543 5543 5544 5546 5547 5548 5549 5551 5552 5554 5556 5557 5559 5560 5562 5563 5564 5565 5566 5567 5568 5568 5569 5570 5570 5570 5571 5570 5570 5570 5570 5569 5569 5568 5567 5565
5548 5545 5543 5541 5539 5537 5535 5533 5532 5532 5533 5534 5536 5537 5538 5539 5541 5544 5546 5547 5549 5550 5552 5554 5555 5556 5557 5558 5559 5560 5560 5560 5561 5561 5561 5561 5561 5560 5560 5559 5558 5557 5556 5555
5540 5537 5534 5532 5531 5529 5527 5525 5524 5523 5523 5524 5524 5526 5527 5529 5531 5532 5534 5536 5538 5540 5542 5543 5545 5546 5548 5549 5550 5550 5551 5551 5551 5551 5551 5551 5551 5550 5550 5549 5548 5547 5545 5544
5532 5528 5525 5523 5521 5519 5518 5516 5515 5514 5513 5513 5513 5515 5516 5518 5520 5521 5523 5524 5526 5529 5531 5533 5535 5536 5538 5539 5540 5540 5541 5541 5541 5542 5542 5541 5541 5540 5539 5538 5537 5536 5534 5533
5522 5519 5516 5513 5510 5509 5508 5507 5506 5505 5504 5503 5504 5505 5507 5509 5510 5511 5512 5514 5515 5518 5520 5522 5524 5526 5528 5529 5530 5531 5531 5532 5532 5532 5532 5532 5531 5530 5529 5528 5527 5525 5524 5522
5511 5508 5505 5502 5499 5498 5497 5497 5497 5497 5496 5496 5497 5497 5499 5500 5501 5502 5503 5504 5506 5508 5510 5512 5514 5516 5518 5520 5521 5522 5522 5523 5523 5523 5523 5522 5521 5521 5519 5518 5516 5515 5513 5511
5499 5496 5493 5490 5489 5488 5487 5487 5487 5487 5488 5488 5488 5489 5490 5492 5493 5494 5495 5496 5498 5500 5502 5503 5505 5507 5508 5510 5512 5513 5513 5514 5514 5514 5513 5513 5512 5511 5510 5508 5507 5505 5503 5501
5488 5484 5481 5479 5478 5477 5476 5476 5477 5477 5478 5479 5480 5481 5482 5483 5484 5485 5486 5488 5489 5491 5493 5494 5496 5498 5499 5501 5502 5503 5504 5504 5504 5504 5504 5503 5502 5501 5500 5498 5497 5495 5493 5491
5476 5473 5470 5468 5467 5466 5466 5466 5466 5466 5467 5469 5470 5471 5472 5474 5475 5476 5477 5479 5481 5483 5484 5486 5487 5488 5489 5491 5492 5494 5494 5495 5495 5495 5494 5494 5493 5492 5490 5489 5487 5485 5483 5481
5464 5461 5458 5456 5455 5454 5454 5454 5455 5456 5457 5458 5460 5461 5463 5464 5466 5467 5469 5470 5472 5474 5476 5477 5478 5479 5480 5481 5483 5484 5485 5486 5486 5485 5485 5484 5483 5482 5481 5479 5478 5476 5474 5472
5452 5449 5447 5445 5444 5443 5443 5443 5444 5445 5447 5448 5450 5451 5453 5455 5456 5458 5460 5462 5463 5465 5467 5468 5469 5470 5472 5473 5474 5475 5475 5476 5476 5476 5476 5475 5474 5473 5471 5470 5468 5466 5464 5462
5441 5438 5436 5435 5433 5433 5432 5432 5433 5435 5436 5438 5440 5441 5443 5445 5447 5449 5451 5452 5454 5456 5458 5459 5460 5462 5463 5464 5465 5465 5466 5467 5467 5467 5467 5466 5465 5464 5462 5460 5459 5457 5455 5453